Location: Tel Aviv
(32.0670°N, 34.7670°E)
Time: 04:58:09
(UTC+03:00)

Vanguard 2 - Pass Details

Date: 24 January 2022
Orbit: 552 x 2935 km, 32.9° (Epoch: 25 May)

Event Time Altitude Azimuth Distance (km) Brightness Sun altitude
Rises 20:51:49 0° 257° (WSW) 4,263 12.0 -47.4°
Reaches altitude 10° 20:54:13 10° 257° (WSW) 3,545 11.4 -47.9°
Enters shadow 20:59:37 46° 256° (WSW) 2,270 9.9 -49.1°
Maximum altitude 21:03:55 88° 170° (S) 2,036 - -50.0°
Drops below altitude 10° 21:19:52 10° 82° (E) 5,516 - -53.3°
Sets 21:24:37 0° 82° (E) 6,693 - -54.3°
